Home > Weather > Kaufbeuren > Past weeks

Flag for Germany Past Weather in Kaufbeuren, Bavaria, Germany — Yesterday and Last 2 Weeks

Now
46 °F

Low clouds.


Feels Like: 46 °F
Forecast: 47 / 72 °F
Wind: 2 mph from North

Location: Altenstadt Airport

Current Time: May 25, 2016 at 7:35:52 AM

Latest Report: May 25, 2016 at 6:52 AM


Visibility: N/A

Pressure: 29.98 "Hg (27.56 "Hg at 693m altitude)

Humidity: 93%

Dew Point: 45 °F

Location of KaufbeurenLocation

Past Weather in Kaufbeuren — Graph

°F

Kaufbeuren Temperature Yesterday

Maximum temperature yesterday: 50 °F (at 3:20 PM)
Minimum temperature yesterday: 41 °F (at 12:20 AM)
Average temperature yesterday: 46 °F

High & Low Weather Summary for the Past Weeks

 TemperatureHumidityPressure
High79 °F (May 22, 2:20 PM)100% (May 11, 2:20 AM)30.18 "Hg (May 11, 2:20 AM)
Low36 °F (May 16, 2:20 AM)30% (May 22, 2:20 PM)29.45 "Hg (May 13, 5:20 AM)
Average50 °F80%29.89 "Hg
* Reported May 10 5:20 AM — May 25 5:20 AM, Kaufbeuren, Weather by CustomWeather, © 2016

Note: Actual official high and low records may vary slightly from our data, if they occured in-between our weather recording intervals... More about our weather records

Advertising

Kaufbeuren Weather History for the Previous 24 Hours

Scroll right to see more
 ConditionsComfort  
Time TempWeatherWind HumidityBarometerVisibility
5:20 AM
Wed, May 25
46 °FFog.1 mph93%29.95 "Hg2 mi
4:20 AM45 °FQuite cool.1 mph100%29.95 "HgN/A
3:20 AM45 °FQuite cool.5 mph100%29.98 "HgN/A
2:20 AM46 °FCool.1 mph93%29.98 "HgN/A
1:20 AM46 °FCool.3 mph93%29.98 "HgN/A
12:20 AM46 °FCool.1 mph93%29.98 "HgN/A
11:20 PM
Tue, May 24
46 °FCool.No wind93%29.98 "HgN/A
10:20 PM48 °FCool.3 mph94%29.98 "HgN/A
9:20 PM48 °FCool.2 mph87%29.98 "HgN/A
8:20 PM48 °FLight rain. Partly sunny.7 mph87%29.98 "HgN/A
7:20 PM50 °FLight rain. Partly sunny.7 mph82%29.98 "HgN/A
6:20 PM50 °FPartly sunny.12 mph82%29.95 "HgN/A
5:20 PM48 °FOvercast.13 mph87%29.95 "HgN/A
4:20 PM48 °FMore clouds than sun.14 mph87%29.98 "HgN/A
3:20 PM50 °FDrizzle. More clouds than sun.16 mph82%29.98 "HgN/A
1:20 PM48 °FLight rain. Mostly cloudy.16 mph87%29.98 "HgN/A
12:20 PM48 °FLight rain. Mostly cloudy.17 mph87%29.98 "HgN/A
11:20 AM46 °FLight rain. Partly sunny.17 mph87%29.95 "HgN/A
10:20 AM46 °FLight rain. Partly sunny.17 mph87%29.95 "Hg5 mi
9:20 AM45 °FDrizzle. Partly sunny.16 mph93%29.95 "Hg4 mi
8:20 AM43 °FDrizzle. Fog.16 mph100%29.95 "Hg2 mi
7:20 AM43 °FRain. Partly sunny.16 mph93%29.92 "Hg4 mi
Weather by CustomWeather, © 2016

See weather overviewHow to use our weather pages